GW6951 Weather Reports


time (UTC)temp
C
wind
direction
speed
KPH
gust
KPH
rain 1hr
cm
rain 24hr
cm
rain mn
cm
humidity
%
barometer
mb
20260906031901 22 150 0.0 1.6 0.00 0.00 0.00 93 1015.2
20260906031356 22 135 0.0 1.6 0.00 0.00 0.00 93 1015.1
20260906030851 23 134 0.0 1.6 0.00 0.00 0.00 92 1014.9
20260906030347 23 135 1.6 1.6 0.00 0.00 0.00 91 1015.0
20260906025846 23 153 1.6 1.6 0.00 0.00 0.00 92 1015.2
20260906025340 23 150 0.0 1.6 0.00 0.00 0.00 91 1015.0
20260906024840 23 125 0.0 1.6 0.00 0.00 0.00 91 1014.9
20260906024339 22 130 1.6 1.6 0.00 0.00 0.00 92 1015.0
20260906023834 23 129 0.0 1.6 0.00 0.00 0.00 92 1015.1
20260906023330 23 130 0.0 0.0 0.00 0.00 0.00 92 1015.0
20260906022825 23 133 0.0 3.2 0.00 0.00 0.00 91 1014.7
20260906022320 23 119 1.6 1.6 0.00 0.00 0.00 92 1014.8
20260906021816 23 142 0.0 0.0 0.00 0.00 0.00 93 1014.8
20260906021316 23 142 1.6 1.6 0.00 0.00 0.00 92 1014.5
20260906020815 23 118 0.0 1.6 0.00 0.00 0.00 91 1014.3
20260906020315 23 112 3.2 3.2 0.00 0.00 0.00 88 1014.5
20260906015810 23 166 1.6 3.2 0.00 0.00 0.00 91 1014.5
20260906015308 23 163 0.0 1.6 0.00 0.00 0.00 92 1014.3
20260906014803 23 146 0.0 0.0 0.00 0.00 0.00 92 1014.4
20260906014258 23 148 0.0 1.6 0.00 0.00 0.00 92 1014.6
20260906013754 23 147 0.0 1.6 0.00 0.00 0.00 93 1014.5
20260906013249 23 108 0.0 3.2 0.00 0.00 0.00 92 1014.6
20260906012744 23 82 1.6 4.8 0.00 0.00 0.00 92 1014.5
20260906012239 23 155 1.6 1.6 0.00 0.00 0.00 94 1014.4
20260906011735 23 148 0.0 1.6 0.00 0.00 0.00 94 1014.7
20260906011234 23 138 1.6 3.2 0.00 0.00 0.00 93 1014.5
20260906010730 23 140 0.0 0.0 0.00 0.00 0.00 93 1014.3
20260906010226 23 140 1.6 1.6 0.00 0.00 0.00 93 1014.5
20260906005721 23 138 0.0 1.6 0.00 0.00 0.00 93 1014.4
20260906005220 23 87 1.6 3.2 0.00 0.00 0.00 93 1014.3
20260906004719 23 148 0.0 1.6 0.00 0.00 0.00 92 1014.2
20260906004214 23 149 0.0 1.6 0.00 0.00 0.00 91 1014.2
20260906003710 23 150 0.0 1.6 0.00 0.00 0.00 90 1014.4
20260906003206 24 136 1.6 1.6 0.00 0.00 0.00 89 1014.2
20260906002705 24 153 0.0 3.2 0.00 0.00 0.00 85 1014.3
20260906002200 24 156 0.0 0.0 0.00 0.00 0.00 88 1014.1
20260906001655 23 159 1.6 3.2 0.00 0.00 0.00 90 1014.0
20260906001155 23 165 1.6 1.6 0.00 0.00 0.00 90 1013.8
20260906000651 24 139 0.0 1.6 0.00 0.00 0.00 89 1013.8
20260906000146 24 138 0.0 0.0 0.00 0.00 0.00 89 1013.7
20260905235645 24 148 1.6 1.6 0.00 0.00 0.00 89 1013.5
20260905235140 24 154 3.2 3.2 0.00 0.00 0.00 88 1013.6
20260905234636 24 165 0.0 1.6 0.00 0.00 0.00 88 1013.4
20260905234132 25 161 1.6 1.6 0.00 0.00 0.00 87 1013.5
20260905233632 25 157 0.0 0.0 0.00 0.00 0.00 86 1013.3
20260905233126 25 158 1.6 1.6 0.00 0.00 0.00 84 1013.3
20260905232621 26 144 1.6 1.6 0.00 0.00 0.00 81 1013.5
20260905232117 25 155 0.0 1.6 0.00 0.00 0.00 80 1013.4
20260905231617 26 98 3.2 4.8 0.00 0.00 0.00 81 1013.5
20260905231113 26 125 0.0 1.6 0.00 0.00 0.00 80 1013.2
20260905230609 26 121 0.0 1.6 0.00 0.00 0.00 78 1013.2
20260905230107 26 98 0.0 1.6 0.00 0.00 0.00 82 1013.3
20260905225606 25 121 1.6 3.2 0.00 0.00 0.00 84 1013.3
20260905225102 26 149 0.0 1.6 0.00 0.00 0.00 86 1013.4
20260905224602 26 148 0.0 1.6 0.00 0.00 0.00 87 1013.4
20260905224101 26 149 1.6 1.6 0.00 0.00 0.00 87 1013.4
20260905223559 26 148 0.0 1.6 0.00 0.00 0.00 88 1013.2
20260905223054 26 148 0.0 1.6 0.00 0.00 0.00 85 1013.5
20260905222554 27 148 0.0 1.6 0.00 0.00 0.00 83 1013.2
20260905222049 27 135 0.0 1.6 0.00 0.00 0.00 83 1013.1
20260905221546 27 151 1.6 1.6 0.00 0.00 0.00 83 1013.3
20260905221041 27 159 0.0 1.6 0.00 0.00 0.00 82 1013.3
20260905220537 27 150 0.0 0.0 0.00 0.00 0.00 86 1013.2
20260905220033 27 139 1.6 1.6 0.00 0.00 0.00 85 1013.4
20260905215532 27 166 1.6 1.6 0.00 0.00 0.00 84 1013.4
20260905215029 27 119 1.6 1.6 0.00 0.00 0.00 86 1013.3
20260905214524 27 147 0.0 1.6 0.00 0.00 0.00 83 1013.7
20260905214019 26 154 0.0 1.6 0.00 0.00 0.00 88 1013.6
20260905213514 26 155 1.6 1.6 0.00 0.00 0.00 86 1013.8
20260905213010 26 144 1.6 3.2 0.00 0.00 0.00 84 1013.8
20260905212505 26 146 0.0 0.0 0.00 0.00 0.00 89 1014.0
20260905212004 26 147 0.0 1.6 0.00 0.00 0.00 91 1014.2
20260905211459 25 137 0.0 0.0 0.00 0.00 0.00 92 1014.1
20260905210955 24 121 0.0 1.6 0.00 0.00 0.00 94 1014.2
20260905210451 25 90 0.0 1.6 0.00 0.00 0.00 93 1014.2
20260905205950 24 135 0.0 1.6 0.00 0.00 0.00 93 1014.2
20260905205445 24 110 1.6 3.2 0.00 0.00 0.00 92 1014.2
20260905204943 24 127 0.0 1.6 0.00 0.00 0.00 91 1014.1
20260905204439 24 131 0.0 4.8 0.00 0.00 0.00 93 1014.5
20260905203938 24 100 1.6 3.2 0.00 0.00 0.00 92 1014.4
20260905203434 24 125 0.0 1.6 0.00 0.00 0.00 94 1014.4
20260905202930 23 135 0.0 0.0 0.00 0.00 0.00 93 1014.5
20260905202424 24 125 0.0 1.6 0.00 0.00 0.00 92 1014.5
20260905182358 28 347 14.5 33.8 0.00 0.00 0.00 68 1016.3
20260905181855 28 347 14.5 33.8 0.00 0.00 0.00 68 1016.3
20260905181354 28 347 14.5 33.8 0.00 0.00 0.00 68 1016.3
20260905180853 30 46 4.8 6.4 0.00 0.00 0.00 73 1014.8
20260905180349 30 124 1.6 3.2 0.00 0.00 0.00 73 1014.4
20260905175844 30 192 1.6 3.2 0.00 0.00 0.00 68 1014.7
20260905175343 31 136 0.0 0.0 0.00 0.00 0.00 70 1014.8
20260905174839 31 136 0.0 0.0 0.00 0.00 0.00 67 1014.9
20260905174335 31 137 0.0 1.6 0.00 0.00 0.00 63 1014.7
20260905173830 31 144 0.0 0.0 0.00 0.00 0.00 63 1014.8
20260905173326 32 142 1.6 1.6 0.00 0.00 0.00 63 1015.0
20260905172826 32 154 1.6 3.2 0.00 0.00 0.00 61 1014.9
20260905172324 33 110 3.2 4.8 0.00 0.00 0.00 59 1015.0
20260905171820 34 124 1.6 3.2 0.00 0.00 0.00 56 1015.0
20260905171317 35 353 4.8 9.7 0.00 0.00 0.00 54 1015.2
20260905170813 35 141 1.6 9.7 0.00 0.00 0.00 55 1015.2
20260905170308 35 173 4.8 6.4 0.00 0.00 0.00 54 1015.0
20260905165807 35 123 0.0 4.8 0.00 0.00 0.00 57 1015.0
20260905165306 34 152 1.6 1.6 0.00 0.00 0.00 58 1015.1
20260905164803 35 7 6.4 6.4 0.00 0.00 0.00 54 1015.2
20260905164258 35 95 0.0 6.4 0.00 0.00 0.00 56 1015.3
20260905163754 34 131 1.6 3.2 0.00 0.00 0.00 54 1015.5
20260905163250 33 129 1.6 1.6 0.00 0.00 0.00 58 1015.4
20260905162746 33 142 0.0 3.2 0.00 0.00 0.00 57 1015.6
20260905162245 33 147 0.0 4.8 0.00 0.00 0.00 58 1015.6
20260905161740 33 11 3.2 6.4 0.00 0.00 0.00 56 1015.5
20260905161239 35 61 3.2 6.4 0.00 0.00 0.00 56 1015.6
20260905160737 35 126 1.6 3.2 0.00 0.00 0.00 54 1015.9
20260905160237 34 132 0.0 1.6 0.00 0.00 0.00 52 1015.8
20260905155732 33 183 3.2 4.8 0.00 0.00 0.00 52 1015.9
20260905155231 33 185 3.2 4.8 0.00 0.00 0.00 52 1015.8
20260905154725 33 146 1.6 4.8 0.00 0.00 0.00 56 1016.0
20260905154221 33 135 0.0 1.6 0.00 0.00 0.00 58 1016.0
20260905153716 33 137 0.0 3.2 0.00 0.00 0.00 60 1015.9
20260905153212 33 144 0.0 1.6 0.00 0.00 0.00 62 1016.0
20260905152707 33 128 0.0 1.6 0.00 0.00 0.00 62 1015.8
20260905152201 33 132 0.0 0.0 0.00 0.00 0.00 59 1015.9
20260905151701 32 130 0.0 1.6 0.00 0.00 0.00 61 1015.8
20260905151156 32 139 1.6 1.6 0.00 0.00 0.00 63 1015.8
20260905150652 32 135 0.0 0.0 0.00 0.00 0.00 65 1015.9
20260905150150 32 137 0.0 1.6 0.00 0.00 0.00 66 1016.0
20260905145648 31 151 0.0 4.8 0.00 0.00 0.00 66 1015.9
20260905145143 31 158 0.0 3.2 0.00 0.00 0.00 70 1015.9
20260905144637 31 140 0.0 1.6 0.00 0.00 0.00 69 1016.2
20260905144136 30 121 0.0 3.2 0.00 0.00 0.00 70 1016.2
20260905143631 30 164 0.0 3.2 0.00 0.00 0.00 69 1016.0
20260905143132 29 146 0.0 1.6 0.00 0.00 0.00 71 1016.0
20260905142630 29 137 1.6 3.2 0.00 0.00 0.00 74 1016.0
20260905142130 29 131 0.0 1.6 0.00 0.00 0.00 74 1016.1
20260905141630 28 163 0.0 3.2 0.00 0.00 0.00 74 1015.9
20260905141127 28 154 1.6 1.6 0.00 0.00 0.00 74 1016.1
20260905140622 27 163 0.0 1.6 0.00 0.00 0.00 76 1016.1
20260905140121 27 146 1.6 3.2 0.00 0.00 0.00 77 1016.1
20260905135616 27 160 1.6 3.2 0.00 0.00 0.00 77 1016.2
20260905135111 27 150 0.0 3.2 0.00 0.00 0.00 78 1016.3
20260905134606 26 159 1.6 1.6 0.00 0.00 0.00 78 1016.5
20260905134105 26 129 1.6 4.8 0.00 0.00 0.00 77 1016.5
20260905133601 26 153 0.0 3.2 0.00 0.00 0.00 79 1016.4
20260905133100 26 153 1.6 3.2 0.00 0.00 0.00 79 1016.5
20260905132600 26 124 0.0 1.6 0.00 0.00 0.00 80 1016.5
20260905132055 26 133 1.6 1.6 0.00 0.00 0.00 80 1016.5
20260905131550 26 129 0.0 1.6 0.00 0.00 0.00 80 1016.5
20260905131046 25 118 1.6 1.6 0.00 0.00 0.00 80 1016.8
20260905130544 25 145 1.6 1.6 0.00 0.00 0.00 80 1016.7
20260905130040 25 111 1.6 1.6 0.00 0.00 0.00 81 1016.7
20260905125539 25 126 0.0 1.6 0.00 0.00 0.00 81 1016.8
20260905125035 25 113 0.0 0.0 0.00 0.00 0.00 82 1016.8
20260905124531 25 147 0.0 0.0 0.00 0.00 0.00 82 1016.6
20260905124027 25 142 1.6 3.2 0.00 0.00 0.00 83 1016.6
20260905123523 25 138 1.6 1.6 0.00 0.00 0.00 83 1016.5
20260905123020 25 147 0.0 3.2 0.00 0.00 0.00 83 1016.6
20260905122519 25 150 0.0 1.6 0.00 0.00 0.00 83 1016.7
20260905122014 24 137 0.0 1.6 0.00 0.00 0.00 83 1016.6
20260905121514 24 115 3.2 3.2 0.00 0.00 0.00 83 1016.6
20260905121009 24 159 0.0 6.4 0.00 0.00 0.00 83 1016.5
20260905120508 24 144 1.6 3.2 0.00 0.00 0.00 83 1016.3
20260905120004 24 118 1.6 3.2 0.00 0.00 0.00 83 1016.2
20260905115502 24 127 3.2 6.4 0.00 0.00 0.00 83 1016.1
20260905114958 24 157 0.0 4.8 0.00 0.00 0.00 84 1016.2
20260905114457 23 140 3.2 6.4 0.00 0.00 0.00 84 1016.0
20260905113956 23 159 0.0 3.2 0.00 0.00 0.00 85 1015.9
20260905113452 23 132 0.0 1.6 0.00 0.00 0.00 84 1016.0
20260905112947 23 93 1.6 3.2 0.00 0.00 0.00 85 1015.8
20260905112442 23 128 1.6 3.2 0.00 0.00 0.00 86 1015.6
20260905111938 23 156 1.6 3.2 0.00 0.00 0.00 86 1015.8
20260905111438 23 137 0.0 6.4 0.00 0.00 0.00 86 1015.4
20260905110932 23 105 1.6 4.8 0.00 0.00 0.00 86 1015.5
20260905110431 23 63 3.2 3.2 0.00 0.00 0.00 85 1015.4
20260905105931 24 144 3.2 9.7 0.00 0.00 0.00 84 1015.3
20260905105426 24 127 0.0 4.8 0.00 0.00 0.00 84 1015.2
20260905104926 24 98 0.0 3.2 0.00 0.00 0.00 84 1015.3
20260905104422 24 108 0.0 3.2 0.00 0.00 0.00 84 1015.1
20260905103921 24 116 1.6 3.2 0.00 0.00 0.00 84 1015.1
20260905103417 24 140 0.0 3.2 0.00 0.00 0.00 84 1015.0
20260905102913 24 68 1.6 3.2 0.00 0.00 0.00 84 1015.0
20260905102409 24 127 0.0 3.2 0.00 0.00 0.00 85 1014.9
20260905101909 23 154 0.0 4.8 0.00 0.00 0.00 85 1015.1
20260905101407 23 179 3.2 6.4 0.00 0.00 0.00 86 1014.9
20260905100903 23 152 3.2 3.2 0.00 0.00 0.00 86 1014.8
20260905100359 24 131 0.0 3.2 0.00 0.00 0.00 85 1015.1
20260905095857 23 117 0.0 3.2 0.00 0.00 0.00 86 1015.0
20260905095353 24 155 0.0 1.6 0.00 0.00 0.00 85 1014.9
20260905094853 24 118 0.0 0.0 0.00 0.00 0.00 85 1015.0
20260905094349 24 130 1.6 4.8 0.00 0.00 0.00 85 1015.0
20260905093847 23 140 3.2 6.4 0.00 0.00 0.00 87 1015.0
20260905093343 23 99 0.0 3.2 0.00 0.00 0.00 88 1014.8
20260905092839 23 165 0.0 0.0 0.00 0.00 0.00 87 1015.0
20260905092338 23 165 0.0 0.0 0.00 0.00 0.00 88 1014.9
20260905091834 23 166 0.0 0.0 0.00 0.00 0.00 87 1015.1
20260905091333 23 105 0.0 1.6 0.00 0.00 0.00 87 1015.0
20260905090832 23 120 1.6 1.6 0.00 0.00 0.00 87 1015.1
20260905090328 23 121 0.0 0.0 0.00 0.00 0.00 87 1015.4
20260905085828 23 155 0.0 1.6 0.00 0.00 0.00 87 1015.0
20260905085322 23 140 0.0 0.0 0.00 0.00 0.00 87 1015.2
20260905084818 23 149 0.0 3.2 0.00 0.00 0.00 87 1015.2
20260905084317 23 139 0.0 0.0 0.00 0.00 0.00 87 1015.3
20260905083812 23 120 1.6 4.8 0.00 0.00 0.00 87 1015.5
20260905083308 23 124 0.0 3.2 0.00 0.00 0.00 88 1015.4
20260905082803 23 131 0.0 1.6 0.00 0.00 0.00 87 1015.5
20260905082259 23 132 0.0 1.6 0.00 0.00 0.00 87 1015.6
20260905081759 24 154 0.0 1.6 0.00 0.00 0.00 87 1015.5
20260905081255 23 128 0.0 0.0 0.00 0.00 0.00 87 1015.6
20260905080754 23 132 0.0 0.0 0.00 0.00 0.00 87 1015.8
20260905080254 23 143 0.0 0.0 0.00 0.00 0.00 87 1015.8
20260905075753 24 121 0.0 1.6 0.00 0.00 0.00 87 1016.0
20260905075253 24 144 0.0 1.6 0.00 0.00 0.00 87 1016.0
20260905074752 23 123 0.0 3.2 0.00 0.00 0.00 88 1016.0
20260905074248 23 115 0.0 3.2 0.00 0.00 0.00 88 1016.3
20260905073743 24 84 1.6 3.2 0.00 0.00 0.00 87 1016.0
20260905073238 24 161 0.0 3.2 0.00 0.00 0.00 86 1016.0
20260905072737 24 143 0.0 1.6 0.00 0.00 0.00 85 1016.0
20260905072233 25 158 0.0 0.0 0.00 0.00 0.00 85 1016.0
20260905071730 25 144 0.0 1.6 0.00 0.00 0.00 85 1016.1
20260905071226 25 123 3.2 4.8 0.00 0.00 0.00 85 1016.0
20260905070720 24 118 0.0 1.6 0.00 0.00 0.00 86 1016.2
20260905070216 24 118 0.0 1.6 0.00 0.00 0.00 86 1016.2
20260905065715 24 76 3.2 3.2 0.00 0.00 0.00 86 1016.2
20260905065209 24 121 0.0 0.0 0.00 0.00 0.00 87 1016.1
20260905064704 24 171 0.0 1.6 0.00 0.00 0.00 86 1016.3
20260905064200 24 138 0.0 0.0 0.00 0.00 0.00 86 1016.3
20260905063658 24 114 0.0 1.6 0.00 0.00 0.00 87 1016.4
20260905063155 24 122 0.0 1.6 0.00 0.00 0.00 88 1016.5
20260905062650 24 121 0.0 1.6 0.00 0.00 0.00 88 1016.4
20260905062149 24 132 0.0 0.0 0.00 0.00 0.00 89 1016.5
20260905061644 24 132 1.6 1.6 0.00 0.00 0.00 88 1016.6
20260905061144 24 133 0.0 3.2 0.00 0.00 0.00 88 1016.7
20260905060639 24 129 0.0 0.0 0.00 0.00 0.00 88 1016.6
20260905060136 24 130 0.0 1.6 0.00 0.00 0.00 88 1016.5
20260905055634 25 129 1.6 1.6 0.00 0.00 0.00 87 1016.7
20260905055130 25 129 0.0 0.0 0.00 0.00 0.00 87 1016.8
20260905054625 25 128 0.0 1.6 0.00 0.00 0.00 87 1016.8
20260905054121 24 112 0.0 1.6 0.00 0.00 0.00 87 1016.7
20260905053620 25 108 0.0 1.6 0.00 0.00 0.00 87 1016.9
20260905053116 25 129 0.0 3.2 0.00 0.00 0.00 87 1016.9
20260905052615 24 135 0.0 1.6 0.00 0.00 0.00 87 1016.9
20260905052109 25 108 1.6 1.6 0.00 0.00 0.00 87 1016.7
20260905051605 25 146 0.0 1.6 0.00 0.00 0.00 87 1016.6
20260905051102 25 120 1.6 1.6 0.00 0.00 0.00 86 1016.5
20260905050558 25 121 0.0 0.0 0.00 0.00 0.00 85 1016.8
20260905050055 25 143 0.0 1.6 0.00 0.00 0.00 86 1016.7
20260905045554 25 142 0.0 1.6 0.00 0.00 0.00 85 1016.9
20260905045050 25 108 0.0 0.0 0.00 0.00 0.00 86 1016.8
20260905044550 25 110 0.0 1.6 0.00 0.00 0.00 86 1016.7
20260905044050 25 135 0.0 1.6 0.00 0.00 0.00 85 1016.6
20260905043549 25 137 0.0 0.0 0.00 0.00 0.00 85 1016.6
20260905043044 25 137 0.0 1.6 0.00 0.00 0.00 84 1016.6
20260905042543 25 131 0.0 1.6 0.00 0.00 0.00 84 1016.6
20260905042039 25 116 0.0 0.0 0.00 0.00 0.00 85 1016.5
20260905041534 25 116 0.0 1.6 0.00 0.00 0.00 85 1016.6
20260905041029 25 150 0.0 0.0 0.00 0.00 0.00 85 1016.7
20260905040529 25 150 0.0 0.0 0.00 0.00 0.00 85 1016.8
20260905040028 25 150 0.0 0.0 0.00 0.00 0.00 85 1016.7
20260905035523 25 150 0.0 1.6 0.00 0.00 0.00 84 1016.7
20260905035020 25 147 1.6 1.6 0.00 0.00 0.00 84 1016.6
20260905034515 25 146 0.0 0.0 0.00 0.00 0.00 84 1016.6
20260905034015 26 114 0.0 1.6 0.00 0.00 0.00 84 1016.9
20260905033509 26 164 0.0 1.6 0.00 0.00 0.00 83 1016.7
20260905033004 25 112 1.6 1.6 0.00 0.00 0.00 84 1016.7
20260905032459 25 121 0.0 1.6 0.00 0.00 0.00 85 1016.9